Year,Month,Day,Hour,Minute,Value (Times are PST for temperature in C)
2015,07,18,00,00,19.00
2015,07,18,00,01,18.90
2015,07,18,00,02,18.90
2015,07,18,00,03,18.90
2015,07,18,00,04,18.90
2015,07,18,00,05,18.80
2015,07,18,00,06,18.80
2015,07,18,00,07,18.80
2015,07,18,00,08,18.80
2015,07,18,00,09,18.80
2015,07,18,00,10,18.80
2015,07,18,00,11,18.80
2015,07,18,00,12,18.80
2015,07,18,00,13,18.80
2015,07,18,00,14,18.70
2015,07,18,00,15,18.70
2015,07,18,00,16,18.70
2015,07,18,00,17,18.70
2015,07,18,00,18,18.70
2015,07,18,00,19,18.70
2015,07,18,00,20,18.70
2015,07,18,00,21,18.60
2015,07,18,00,22,18.60
2015,07,18,00,23,18.60
2015,07,18,00,24,18.60
2015,07,18,00,25,18.60
2015,07,18,00,26,18.50
2015,07,18,00,27,18.50
2015,07,18,00,28,18.40
2015,07,18,00,29,18.40
2015,07,18,00,30,18.40
2015,07,18,00,31,18.30
2015,07,18,00,32,18.30
2015,07,18,00,33,18.30
2015,07,18,00,34,18.30
2015,07,18,00,35,18.20
2015,07,18,00,36,18.20
2015,07,18,00,37,18.20
2015,07,18,00,38,18.20
2015,07,18,00,39,18.10
2015,07,18,00,40,18.10
2015,07,18,00,41,18.10
2015,07,18,00,42,18.00
2015,07,18,00,43,18.00
2015,07,18,00,44,18.00
2015,07,18,00,45,18.00
2015,07,18,00,46,18.00
2015,07,18,00,47,18.00
2015,07,18,00,48,18.00
2015,07,18,00,49,18.00
2015,07,18,00,50,18.00
2015,07,18,00,51,18.00
2015,07,18,00,52,18.00
2015,07,18,00,53,18.00
2015,07,18,00,54,18.00
2015,07,18,00,55,18.00
2015,07,18,00,56,18.00
2015,07,18,00,57,18.00
2015,07,18,00,58,17.90
2015,07,18,00,59,17.90
2015,07,18,01,00,17.90
2015,07,18,01,01,17.80
2015,07,18,01,02,17.80
2015,07,18,01,03,17.80
2015,07,18,01,04,17.70
2015,07,18,01,05,17.70
2015,07,18,01,06,17.70
2015,07,18,01,07,17.70
2015,07,18,01,08,17.60
2015,07,18,01,09,17.60
2015,07,18,01,10,17.60
2015,07,18,01,11,17.60
2015,07,18,01,12,17.50
2015,07,18,01,13,17.50
2015,07,18,01,14,17.50
2015,07,18,01,15,17.40
2015,07,18,01,16,17.40
2015,07,18,01,17,17.30
2015,07,18,01,18,17.30
2015,07,18,01,19,17.30
2015,07,18,01,20,17.30
2015,07,18,01,21,17.30
2015,07,18,01,22,17.30
2015,07,18,01,23,17.40
2015,07,18,01,24,17.40
2015,07,18,01,25,17.40
2015,07,18,01,26,17.40
2015,07,18,01,27,17.40
2015,07,18,01,28,17.40
2015,07,18,01,29,17.40
2015,07,18,01,30,17.40
2015,07,18,01,31,17.40
2015,07,18,01,32,17.40
2015,07,18,01,33,17.40
2015,07,18,01,34,17.40
2015,07,18,01,35,17.30
2015,07,18,01,36,17.30
2015,07,18,01,37,17.30
2015,07,18,01,38,17.30
2015,07,18,01,39,17.20
2015,07,18,01,40,17.20
2015,07,18,01,41,17.20
2015,07,18,01,42,17.20
2015,07,18,01,43,17.20
2015,07,18,01,44,17.20
2015,07,18,01,45,17.20
2015,07,18,01,46,17.10
2015,07,18,01,47,17.10
2015,07,18,01,48,17.10
2015,07,18,01,49,17.10
2015,07,18,01,50,17.10
2015,07,18,01,51,17.10
2015,07,18,01,52,17.10
2015,07,18,01,53,17.10
2015,07,18,01,54,17.10
2015,07,18,01,55,17.10
2015,07,18,01,56,17.10
2015,07,18,01,57,17.10
2015,07,18,01,58,17.00
2015,07,18,01,59,17.00
2015,07,18,02,00,16.90
2015,07,18,02,01,16.90
2015,07,18,02,02,16.90
2015,07,18,02,03,16.80
2015,07,18,02,04,16.80
2015,07,18,02,05,16.80
2015,07,18,02,06,16.80
2015,07,18,02,07,16.70
2015,07,18,02,08,16.70
2015,07,18,02,09,16.70
2015,07,18,02,10,16.70
2015,07,18,02,11,16.70
2015,07,18,02,12,16.70
2015,07,18,02,13,16.70
2015,07,18,02,14,16.60
2015,07,18,02,15,16.60
2015,07,18,02,16,16.60
2015,07,18,02,17,16.60
2015,07,18,02,18,16.60
2015,07,18,02,19,16.60
2015,07,18,02,20,16.50
2015,07,18,02,21,16.50
2015,07,18,02,22,16.50
2015,07,18,02,23,16.40
2015,07,18,02,24,16.40
2015,07,18,02,25,16.40
2015,07,18,02,26,16.40
2015,07,18,02,27,16.40
2015,07,18,02,28,16.30
2015,07,18,02,29,16.30
2015,07,18,02,30,16.30
2015,07,18,02,31,16.30
2015,07,18,02,32,16.20
2015,07,18,02,33,16.20
2015,07,18,02,34,16.20
2015,07,18,02,35,16.10
2015,07,18,02,36,16.10
2015,07,18,02,37,16.10
2015,07,18,02,38,16.00
2015,07,18,02,39,15.90
2015,07,18,02,40,15.90
2015,07,18,02,41,15.90
2015,07,18,02,42,15.90
2015,07,18,02,43,15.80
2015,07,18,02,44,15.80
2015,07,18,02,45,15.80
2015,07,18,02,46,15.80
2015,07,18,02,47,15.70
2015,07,18,02,48,15.70
2015,07,18,02,49,15.70
2015,07,18,02,50,15.70
2015,07,18,02,51,15.70
2015,07,18,02,52,15.70
2015,07,18,02,53,15.70
2015,07,18,02,54,15.70
2015,07,18,02,55,15.70
2015,07,18,02,56,15.70
2015,07,18,02,57,15.70
2015,07,18,02,58,15.60
2015,07,18,02,59,15.60
2015,07,18,03,00,15.60
2015,07,18,03,01,15.60
2015,07,18,03,02,15.60
2015,07,18,03,03,15.60
2015,07,18,03,04,15.60
2015,07,18,03,05,15.60
2015,07,18,03,06,15.60
2015,07,18,03,07,15.60
2015,07,18,03,08,15.60
2015,07,18,03,09,15.60
2015,07,18,03,10,15.70
2015,07,18,03,11,15.70
2015,07,18,03,12,15.70
2015,07,18,03,13,15.70
2015,07,18,03,14,15.70
2015,07,18,03,15,15.60
2015,07,18,03,16,15.60
2015,07,18,03,17,15.60
2015,07,18,03,18,15.60
2015,07,18,03,19,15.60
2015,07,18,03,20,15.60
2015,07,18,03,21,15.50
2015,07,18,03,22,15.50
2015,07,18,03,23,15.40
2015,07,18,03,24,15.40
2015,07,18,03,25,15.40
2015,07,18,03,26,15.40
2015,07,18,03,27,15.30
2015,07,18,03,28,15.30
2015,07,18,03,29,15.30
2015,07,18,03,30,15.30
2015,07,18,03,31,15.30
2015,07,18,03,32,15.30
2015,07,18,03,33,15.30
2015,07,18,03,34,15.30
2015,07,18,03,35,15.30
2015,07,18,03,36,15.30
2015,07,18,03,37,15.30
2015,07,18,03,38,15.30
2015,07,18,03,39,15.30
2015,07,18,03,40,15.40
2015,07,18,03,41,15.40
2015,07,18,03,42,15.40
2015,07,18,03,43,15.40
2015,07,18,03,44,15.50
2015,07,18,03,45,15.50
2015,07,18,03,46,15.50
2015,07,18,03,47,15.50
2015,07,18,03,48,15.50
2015,07,18,03,49,15.50
2015,07,18,03,50,15.50
2015,07,18,03,51,15.50
2015,07,18,03,52,15.50
2015,07,18,03,53,15.50
2015,07,18,03,54,15.50
2015,07,18,03,55,15.50
2015,07,18,03,56,15.50
2015,07,18,03,57,15.50
2015,07,18,03,58,15.50
2015,07,18,03,59,15.50
2015,07,18,04,00,15.50
2015,07,18,04,01,15.50
2015,07,18,04,02,15.50
2015,07,18,04,03,15.50
2015,07,18,04,04,15.50
2015,07,18,04,05,15.50
2015,07,18,04,06,15.50
2015,07,18,04,07,15.50
2015,07,18,04,08,15.50
2015,07,18,04,09,15.50
2015,07,18,04,10,15.50
2015,07,18,04,11,15.40
2015,07,18,04,12,15.40
2015,07,18,04,13,15.40
2015,07,18,04,14,15.40
2015,07,18,04,15,15.40
2015,07,18,04,16,15.40
2015,07,18,04,17,15.30
2015,07,18,04,18,15.30
2015,07,18,04,19,15.30
2015,07,18,04,20,15.30
2015,07,18,04,21,15.20
2015,07,18,04,22,15.20
2015,07,18,04,23,15.20
2015,07,18,04,24,15.10
2015,07,18,04,25,15.10
2015,07,18,04,26,15.00
2015,07,18,04,27,15.00
2015,07,18,04,28,15.00
2015,07,18,04,29,14.90
2015,07,18,04,30,14.90
2015,07,18,04,31,14.90
2015,07,18,04,32,14.80
2015,07,18,04,33,14.80
2015,07,18,04,34,14.80
2015,07,18,04,35,14.80
2015,07,18,04,36,14.80
2015,07,18,04,37,14.80
2015,07,18,04,38,14.80
2015,07,18,04,39,14.80
2015,07,18,04,40,14.80
2015,07,18,04,41,14.80
2015,07,18,04,42,14.80
2015,07,18,04,43,14.80
2015,07,18,04,44,14.80
2015,07,18,04,45,14.80
2015,07,18,04,46,14.80
2015,07,18,04,47,14.90
2015,07,18,04,48,14.90
2015,07,18,04,49,14.90
2015,07,18,04,50,15.00
2015,07,18,04,51,15.00
2015,07,18,04,52,15.10
2015,07,18,04,53,15.10
2015,07,18,04,54,15.10
2015,07,18,04,55,15.10
2015,07,18,04,56,15.10
2015,07,18,04,57,15.20
2015,07,18,04,58,15.20
2015,07,18,04,59,15.20
2015,07,18,05,00,15.20
2015,07,18,05,01,15.10
2015,07,18,05,02,15.10
2015,07,18,05,03,15.10
2015,07,18,05,04,15.10
2015,07,18,05,05,15.10
2015,07,18,05,06,15.10
2015,07,18,05,07,15.10
2015,07,18,05,08,15.00
2015,07,18,05,09,15.00
2015,07,18,05,10,15.00
2015,07,18,05,11,14.90
2015,07,18,05,12,14.90
2015,07,18,05,13,14.90
2015,07,18,05,14,14.90
2015,07,18,05,15,14.90
2015,07,18,05,16,14.90
2015,07,18,05,17,14.90
2015,07,18,05,18,14.90
2015,07,18,05,19,14.90
2015,07,18,05,20,14.90
2015,07,18,05,21,14.90
2015,07,18,05,22,14.90
2015,07,18,05,23,15.00
2015,07,18,05,24,15.00
2015,07,18,05,25,15.00
2015,07,18,05,26,15.00
2015,07,18,05,27,15.00
2015,07,18,05,28,14.90
2015,07,18,05,29,14.90
2015,07,18,05,30,14.90
2015,07,18,05,31,14.90
2015,07,18,05,32,14.90
2015,07,18,05,33,14.90
2015,07,18,05,34,14.90
2015,07,18,05,35,14.90
2015,07,18,05,36,14.80
2015,07,18,05,37,14.80
2015,07,18,05,38,14.80
2015,07,18,05,39,14.70
2015,07,18,05,40,14.70
2015,07,18,05,41,14.70
2015,07,18,05,42,14.70
2015,07,18,05,43,14.60
2015,07,18,05,44,14.60
2015,07,18,05,45,14.60
2015,07,18,05,46,14.60
2015,07,18,05,47,14.70
2015,07,18,05,48,14.70
2015,07,18,05,49,14.70
2015,07,18,05,50,14.80
2015,07,18,05,51,14.80
2015,07,18,05,52,14.80
2015,07,18,05,53,14.80
2015,07,18,05,54,14.80
2015,07,18,05,55,14.80
2015,07,18,05,56,14.80
2015,07,18,05,57,14.80
2015,07,18,05,58,14.80
2015,07,18,05,59,14.80
2015,07,18,06,00,14.80
2015,07,18,06,01,14.80
2015,07,18,06,02,14.80
2015,07,18,06,03,14.90
2015,07,18,06,04,14.90
2015,07,18,06,05,14.90
2015,07,18,06,06,15.00
2015,07,18,06,07,15.00
2015,07,18,06,08,15.10
2015,07,18,06,09,15.10
2015,07,18,06,10,15.20
2015,07,18,06,11,15.20
2015,07,18,06,12,15.30
2015,07,18,06,13,15.30
2015,07,18,06,14,15.40
2015,07,18,06,15,15.40
2015,07,18,06,16,15.40
2015,07,18,06,17,15.50
2015,07,18,06,18,15.50
2015,07,18,06,19,15.60
2015,07,18,06,20,15.60
2015,07,18,06,21,15.60
2015,07,18,06,22,15.60
2015,07,18,06,23,15.70
2015,07,18,06,24,15.70
2015,07,18,06,25,15.70
2015,07,18,06,26,15.70
2015,07,18,06,27,15.70
2015,07,18,06,28,15.80
2015,07,18,06,29,15.80
2015,07,18,06,30,15.80
2015,07,18,06,31,15.90
2015,07,18,06,32,15.90
2015,07,18,06,33,15.90
2015,07,18,06,34,15.90
2015,07,18,06,35,15.90
2015,07,18,06,36,15.90
2015,07,18,06,37,15.90
2015,07,18,06,38,15.90
2015,07,18,06,39,15.90
2015,07,18,06,40,15.90
2015,07,18,06,41,15.90
2015,07,18,06,42,15.90
2015,07,18,06,43,16.00
2015,07,18,06,44,16.00
2015,07,18,06,45,16.00
2015,07,18,06,46,16.10
2015,07,18,06,47,16.20
2015,07,18,06,48,16.20
2015,07,18,06,49,16.30
2015,07,18,06,50,16.30
2015,07,18,06,51,16.40
2015,07,18,06,52,16.40
2015,07,18,06,53,16.50
2015,07,18,06,54,16.60
2015,07,18,06,55,16.60
2015,07,18,06,56,16.70
2015,07,18,06,57,16.70
2015,07,18,06,58,16.80
2015,07,18,06,59,16.80
2015,07,18,07,00,16.90
2015,07,18,07,01,16.90
2015,07,18,07,02,16.90
2015,07,18,07,03,17.00
2015,07,18,07,04,17.10
2015,07,18,07,05,17.10
2015,07,18,07,06,17.20
2015,07,18,07,07,17.20
2015,07,18,07,08,17.30
2015,07,18,07,09,17.30
2015,07,18,07,10,17.30
2015,07,18,07,11,17.30
2015,07,18,07,12,17.40
2015,07,18,07,13,17.50
2015,07,18,07,14,17.50
2015,07,18,07,15,17.60
2015,07,18,07,16,17.70
2015,07,18,07,17,17.80
2015,07,18,07,18,17.80
2015,07,18,07,19,17.90
2015,07,18,07,20,18.00
2015,07,18,07,21,18.10
2015,07,18,07,22,18.20
2015,07,18,07,23,18.20
2015,07,18,07,24,18.30
2015,07,18,07,25,18.30
2015,07,18,07,26,18.40
2015,07,18,07,27,18.50
2015,07,18,07,28,18.50
2015,07,18,07,29,18.60
2015,07,18,07,30,18.70
2015,07,18,07,31,18.70
2015,07,18,07,32,18.80
2015,07,18,07,33,18.90
2015,07,18,07,34,19.00
2015,07,18,07,35,19.10
2015,07,18,07,36,19.10
2015,07,18,07,37,19.20
2015,07,18,07,38,19.30
2015,07,18,07,39,19.50
2015,07,18,07,40,19.60
2015,07,18,07,41,19.70
2015,07,18,07,42,19.80
2015,07,18,07,43,19.80
2015,07,18,07,44,19.90
2015,07,18,07,45,20.00
2015,07,18,07,46,20.10
2015,07,18,07,47,20.20
2015,07,18,07,48,20.20
2015,07,18,07,49,20.20
2015,07,18,07,50,20.20
2015,07,18,07,51,20.20
2015,07,18,07,52,20.20
2015,07,18,07,53,20.20
2015,07,18,07,54,20.20
2015,07,18,07,55,20.20
2015,07,18,07,56,20.20
2015,07,18,07,57,20.30
2015,07,18,07,58,20.30
2015,07,18,07,59,20.30
2015,07,18,08,00,20.30
2015,07,18,08,01,20.30
2015,07,18,08,02,20.30
2015,07,18,08,03,20.30
2015,07,18,08,04,20.20
2015,07,18,08,05,20.20
2015,07,18,08,06,20.30
2015,07,18,08,07,20.30
2015,07,18,08,08,20.30
2015,07,18,08,09,20.30
2015,07,18,08,10,20.30
2015,07,18,08,11,20.40
2015,07,18,08,12,20.50
2015,07,18,08,13,20.60
2015,07,18,08,14,20.80
2015,07,18,08,15,20.90
2015,07,18,08,16,20.90
2015,07,18,08,17,21.00
2015,07,18,08,18,21.10
2015,07,18,08,19,21.10
2015,07,18,08,20,21.10
2015,07,18,08,21,21.10
2015,07,18,08,22,21.20
2015,07,18,08,23,21.20
2015,07,18,08,24,21.20
2015,07,18,08,25,21.20
2015,07,18,08,26,21.20
2015,07,18,08,27,21.20
2015,07,18,08,28,21.20
2015,07,18,08,29,21.30
2015,07,18,08,30,21.30
2015,07,18,08,31,21.30
2015,07,18,08,32,21.30
2015,07,18,08,33,21.30
2015,07,18,08,34,21.40
2015,07,18,08,35,21.40
2015,07,18,08,36,21.50
2015,07,18,08,37,21.50
2015,07,18,08,38,21.60
2015,07,18,08,39,21.70
2015,07,18,08,40,21.80
2015,07,18,08,41,21.80
2015,07,18,08,42,21.80
2015,07,18,08,43,21.90
2015,07,18,08,44,21.90
2015,07,18,08,45,21.90
2015,07,18,08,46,21.90
2015,07,18,08,47,21.80
2015,07,18,08,48,21.80
2015,07,18,08,49,21.80
2015,07,18,08,50,21.80
2015,07,18,08,51,21.80
2015,07,18,08,52,21.90
2015,07,18,08,53,21.90
2015,07,18,08,54,21.90
2015,07,18,08,55,21.90
2015,07,18,08,56,21.90
2015,07,18,08,57,21.90
2015,07,18,08,58,22.00
2015,07,18,08,59,22.00
2015,07,18,09,00,21.90
2015,07,18,09,01,21.90
2015,07,18,09,02,21.90
2015,07,18,09,03,22.00
2015,07,18,09,04,22.10
2015,07,18,09,05,22.10
2015,07,18,09,06,22.10
2015,07,18,09,07,22.10
2015,07,18,09,08,22.20
2015,07,18,09,09,22.20
2015,07,18,09,10,22.30
2015,07,18,09,11,22.30
2015,07,18,09,12,22.40
2015,07,18,09,13,22.40
2015,07,18,09,14,22.50
2015,07,18,09,15,22.50
2015,07,18,09,16,22.60
2015,07,18,09,17,22.70
2015,07,18,09,18,22.70
2015,07,18,09,19,22.80
2015,07,18,09,20,22.70
2015,07,18,09,21,22.70
2015,07,18,09,22,22.60
2015,07,18,09,23,22.60
2015,07,18,09,24,22.50
2015,07,18,09,25,22.50
2015,07,18,09,26,22.50
2015,07,18,09,27,22.50
2015,07,18,09,28,22.50
2015,07,18,09,29,22.40
2015,07,18,09,30,22.40
2015,07,18,09,31,22.40
2015,07,18,09,32,22.40
2015,07,18,09,33,22.40
2015,07,18,09,34,22.50
2015,07,18,09,35,22.50
2015,07,18,09,36,22.60
2015,07,18,09,37,22.60
2015,07,18,09,38,22.50
2015,07,18,09,39,22.50
2015,07,18,09,40,22.40
2015,07,18,09,41,22.40
2015,07,18,09,42,22.40
2015,07,18,09,43,22.40
2015,07,18,09,44,22.50
2015,07,18,09,45,22.60
2015,07,18,09,46,22.60
2015,07,18,09,47,22.60
2015,07,18,09,48,22.60
2015,07,18,09,49,22.60
2015,07,18,09,50,22.60
2015,07,18,09,51,22.70
2015,07,18,09,52,22.70
2015,07,18,09,53,22.70
2015,07,18,09,54,22.60
2015,07,18,09,55,22.60
2015,07,18,09,56,22.60
2015,07,18,09,57,22.60
2015,07,18,09,58,22.70
2015,07,18,09,59,22.70
2015,07,18,10,00,22.70
2015,07,18,10,01,22.70
2015,07,18,10,02,22.70
2015,07,18,10,03,22.70
2015,07,18,10,04,22.70
2015,07,18,10,05,22.70
2015,07,18,10,06,22.70
2015,07,18,10,07,22.70
2015,07,18,10,08,22.60
2015,07,18,10,09,22.70
2015,07,18,10,10,22.70
2015,07,18,10,11,22.70
2015,07,18,10,12,22.70
2015,07,18,10,13,22.70
2015,07,18,10,14,22.70
2015,07,18,10,15,22.70
2015,07,18,10,16,22.60
2015,07,18,10,17,22.60
2015,07,18,10,18,22.60
2015,07,18,10,19,22.60
2015,07,18,10,20,22.60
2015,07,18,10,21,22.70
2015,07,18,10,22,22.70
2015,07,18,10,23,22.70
2015,07,18,10,24,22.80
2015,07,18,10,25,22.80
2015,07,18,10,26,22.80
2015,07,18,10,27,22.80
2015,07,18,10,28,22.80
2015,07,18,10,29,22.80
2015,07,18,10,30,22.70
2015,07,18,10,31,22.70
2015,07,18,10,32,22.70
2015,07,18,10,33,22.70
2015,07,18,10,34,22.70
2015,07,18,10,35,22.70
2015,07,18,10,36,22.80
2015,07,18,10,37,22.80
2015,07,18,10,38,22.90
2015,07,18,10,39,23.00
2015,07,18,10,40,23.10
2015,07,18,10,41,23.10
2015,07,18,10,42,23.20
2015,07,18,10,43,23.10
2015,07,18,10,44,23.10
2015,07,18,10,45,23.00
2015,07,18,10,46,22.90
2015,07,18,10,47,22.90
2015,07,18,10,48,22.90
2015,07,18,10,49,22.80
2015,07,18,10,50,22.80
2015,07,18,10,51,22.80
2015,07,18,10,52,22.90
2015,07,18,10,53,23.00
2015,07,18,10,54,23.10
2015,07,18,10,55,23.20
2015,07,18,10,56,23.30
2015,07,18,10,57,23.30
2015,07,18,10,58,23.30
2015,07,18,10,59,23.20
2015,07,18,11,00,23.20
2015,07,18,11,01,23.20
2015,07,18,11,02,23.20
2015,07,18,11,03,23.20
2015,07,18,11,04,23.20
2015,07,18,11,05,23.20
2015,07,18,11,06,23.10
2015,07,18,11,07,23.10
2015,07,18,11,08,23.20
2015,07,18,11,09,23.20
2015,07,18,11,10,23.30
2015,07,18,11,11,23.40
2015,07,18,11,12,23.50
2015,07,18,11,13,23.60
2015,07,18,11,14,23.70
2015,07,18,11,15,23.70
2015,07,18,11,16,23.70
2015,07,18,11,17,23.80
2015,07,18,11,18,23.80
2015,07,18,11,19,23.80
2015,07,18,11,20,23.70
2015,07,18,11,21,23.50
2015,07,18,11,22,23.50
2015,07,18,11,23,23.40
2015,07,18,11,24,23.50
2015,07,18,11,25,23.50
2015,07,18,11,26,23.70
2015,07,18,11,27,23.70
2015,07,18,11,28,23.70
2015,07,18,11,29,23.70
2015,07,18,11,30,23.70
2015,07,18,11,31,23.80
2015,07,18,11,32,23.80
2015,07,18,11,33,23.80
2015,07,18,11,34,23.80
2015,07,18,11,35,23.80
2015,07,18,11,36,23.80
2015,07,18,11,37,23.80
2015,07,18,11,38,23.80
2015,07,18,11,39,23.80
2015,07,18,11,40,24.00
2015,07,18,11,41,24.10
2015,07,18,11,42,24.20
2015,07,18,11,43,24.40
2015,07,18,11,44,24.50
2015,07,18,11,45,24.60
2015,07,18,11,46,24.70
2015,07,18,11,47,24.70
2015,07,18,11,48,24.70
2015,07,18,11,49,24.80
2015,07,18,11,50,24.80
2015,07,18,11,51,24.80
2015,07,18,11,52,24.90
2015,07,18,11,53,24.80
2015,07,18,11,54,24.80
2015,07,18,11,55,24.70
2015,07,18,11,56,24.70
2015,07,18,11,57,24.70
2015,07,18,11,58,24.80
2015,07,18,11,59,24.80
2015,07,18,12,00,24.80
2015,07,18,12,01,24.80
2015,07,18,12,02,24.80
2015,07,18,12,03,24.80
2015,07,18,12,04,24.90
2015,07,18,12,05,24.90
2015,07,18,12,06,24.80
2015,07,18,12,07,24.90
2015,07,18,12,08,24.90
2015,07,18,12,09,25.00
2015,07,18,12,10,25.00
2015,07,18,12,11,25.00
2015,07,18,12,12,25.00
2015,07,18,12,13,25.00
2015,07,18,12,14,25.10
2015,07,18,12,15,25.20
2015,07,18,12,16,25.30
2015,07,18,12,17,25.40
2015,07,18,12,18,25.50
2015,07,18,12,19,25.60
2015,07,18,12,20,25.60
2015,07,18,12,21,25.60
2015,07,18,12,22,25.60
2015,07,18,12,23,25.50
2015,07,18,12,24,25.40
2015,07,18,12,25,25.30
2015,07,18,12,26,25.30
2015,07,18,12,27,25.10
2015,07,18,12,28,25.00
2015,07,18,12,29,24.80
2015,07,18,12,30,24.80
2015,07,18,12,31,24.80
2015,07,18,12,32,24.90
2015,07,18,12,33,25.00
2015,07,18,12,34,25.10
2015,07,18,12,35,25.10
2015,07,18,12,36,25.20
2015,07,18,12,37,25.20
2015,07,18,12,38,25.30
2015,07,18,12,39,25.30
2015,07,18,12,40,25.30
2015,07,18,12,41,25.40
2015,07,18,12,42,25.40
2015,07,18,12,43,25.50
2015,07,18,12,44,25.50
2015,07,18,12,45,25.50
2015,07,18,12,46,25.50
2015,07,18,12,47,25.50
2015,07,18,12,48,25.60
2015,07,18,12,49,25.70
2015,07,18,12,50,25.70
2015,07,18,12,51,25.60
2015,07,18,12,52,25.50
2015,07,18,12,53,25.40
2015,07,18,12,54,25.40
2015,07,18,12,55,25.40
2015,07,18,12,56,25.50
2015,07,18,12,57,25.60
2015,07,18,12,58,25.60
2015,07,18,12,59,25.60
2015,07,18,13,00,25.60
2015,07,18,13,01,25.50
2015,07,18,13,02,25.40
2015,07,18,13,03,25.30
2015,07,18,13,04,25.30
2015,07,18,13,05,25.30
2015,07,18,13,06,25.20
2015,07,18,13,07,25.10
2015,07,18,13,08,25.10
2015,07,18,13,09,25.10
2015,07,18,13,10,25.10
2015,07,18,13,11,25.10
2015,07,18,13,12,25.00
2015,07,18,13,13,24.80
2015,07,18,13,14,24.90
2015,07,18,13,15,25.00
2015,07,18,13,16,25.10
2015,07,18,13,17,25.20
2015,07,18,13,18,25.20
2015,07,18,13,19,25.20
2015,07,18,13,20,25.20
2015,07,18,13,21,25.30
2015,07,18,13,22,25.30
2015,07,18,13,23,25.30
2015,07,18,13,24,25.30
2015,07,18,13,25,25.40
2015,07,18,13,26,25.60
2015,07,18,13,27,25.70
2015,07,18,13,28,25.90
2015,07,18,13,29,26.00
2015,07,18,13,30,26.00
2015,07,18,13,31,25.90
2015,07,18,13,32,25.80
2015,07,18,13,33,25.70
2015,07,18,13,34,25.70
2015,07,18,13,35,25.60
2015,07,18,13,36,25.50
2015,07,18,13,37,25.50
2015,07,18,13,38,25.40
2015,07,18,13,39,25.50
2015,07,18,13,40,25.50
2015,07,18,13,41,25.50
2015,07,18,13,42,25.40
2015,07,18,13,43,25.40
2015,07,18,13,44,25.30
2015,07,18,13,45,25.20
2015,07,18,13,46,25.10
2015,07,18,13,47,25.10
2015,07,18,13,48,25.00
2015,07,18,13,49,25.10
2015,07,18,13,50,25.10
2015,07,18,13,51,25.10
2015,07,18,13,52,25.20
2015,07,18,13,53,25.30
2015,07,18,13,54,25.30
2015,07,18,13,55,25.30
2015,07,18,13,56,25.30
2015,07,18,13,57,25.40
2015,07,18,13,58,25.60
2015,07,18,13,59,25.60
2015,07,18,14,00,25.70
2015,07,18,14,01,25.70
2015,07,18,14,02,25.70
2015,07,18,14,03,25.70
2015,07,18,14,04,25.80
2015,07,18,14,05,25.80
2015,07,18,14,06,25.70
2015,07,18,14,07,25.60
2015,07,18,14,08,25.50
2015,07,18,14,09,25.40
2015,07,18,14,10,25.40
2015,07,18,14,11,25.40
2015,07,18,14,12,25.50
2015,07,18,14,13,25.60
2015,07,18,14,14,25.60
2015,07,18,14,15,25.70
2015,07,18,14,16,25.80
2015,07,18,14,17,25.80
2015,07,18,14,18,25.80
2015,07,18,14,19,25.80
2015,07,18,14,20,25.80
2015,07,18,14,21,25.90
2015,07,18,14,22,26.00
2015,07,18,14,23,26.20
2015,07,18,14,24,26.20
2015,07,18,14,25,26.30
2015,07,18,14,26,26.30
2015,07,18,14,27,26.30
2015,07,18,14,28,26.30
2015,07,18,14,29,26.30
2015,07,18,14,30,26.30
2015,07,18,14,31,26.30
2015,07,18,14,32,26.40
2015,07,18,14,33,26.60
2015,07,18,14,34,26.70
2015,07,18,14,35,26.80
2015,07,18,14,36,26.90
2015,07,18,14,37,26.90
2015,07,18,14,38,27.10
2015,07,18,14,39,27.20
2015,07,18,14,40,27.20
2015,07,18,14,41,27.30
2015,07,18,14,42,27.30
2015,07,18,14,43,27.40
2015,07,18,14,44,27.40
2015,07,18,14,45,27.50
2015,07,18,14,46,27.50
2015,07,18,14,47,27.50
2015,07,18,14,48,27.50
2015,07,18,14,49,27.50
2015,07,18,14,50,27.60
2015,07,18,14,51,27.60
2015,07,18,14,52,27.70
2015,07,18,14,53,27.70
2015,07,18,14,54,27.80
2015,07,18,14,55,27.80
2015,07,18,14,56,27.80
2015,07,18,14,57,27.90
2015,07,18,14,58,28.00
2015,07,18,14,59,28.10
2015,07,18,15,00,28.10
2015,07,18,15,01,28.20
2015,07,18,15,02,28.20
2015,07,18,15,03,28.20
2015,07,18,15,04,28.10
2015,07,18,15,05,28.10
2015,07,18,15,06,28.10
2015,07,18,15,07,28.10
2015,07,18,15,08,28.10
2015,07,18,15,09,28.10
2015,07,18,15,10,28.00
2015,07,18,15,11,27.90
2015,07,18,15,12,27.90
2015,07,18,15,13,28.00
2015,07,18,15,14,28.00
2015,07,18,15,15,27.90
2015,07,18,15,16,27.90
2015,07,18,15,17,27.90
2015,07,18,15,18,27.80
2015,07,18,15,19,27.80
2015,07,18,15,20,27.80
2015,07,18,15,21,27.80
2015,07,18,15,22,27.90
2015,07,18,15,23,28.00
2015,07,18,15,24,28.20
2015,07,18,15,25,28.40
2015,07,18,15,26,28.40
2015,07,18,15,27,28.40
2015,07,18,15,28,28.30
2015,07,18,15,29,28.30
2015,07,18,15,30,28.20
2015,07,18,15,31,28.20
2015,07,18,15,32,28.20
2015,07,18,15,33,28.20
2015,07,18,15,34,28.30
2015,07,18,15,35,28.30
2015,07,18,15,36,28.30
2015,07,18,15,37,28.40
2015,07,18,15,38,28.40
2015,07,18,15,39,28.50
2015,07,18,15,40,28.50
2015,07,18,15,41,28.60
2015,07,18,15,42,28.60
2015,07,18,15,43,28.70
2015,07,18,15,44,28.70
2015,07,18,15,45,28.60
2015,07,18,15,46,28.60
2015,07,18,15,47,28.60
2015,07,18,15,48,28.60
2015,07,18,15,49,28.70
2015,07,18,15,50,28.70
2015,07,18,15,51,28.80
2015,07,18,15,52,28.90
2015,07,18,15,53,28.90
2015,07,18,15,54,28.90
2015,07,18,15,55,28.90
2015,07,18,15,56,28.90
2015,07,18,15,57,28.90
2015,07,18,15,58,29.00
2015,07,18,15,59,29.20
2015,07,18,16,00,29.30
2015,07,18,16,01,29.40
2015,07,18,16,02,29.50
2015,07,18,16,03,29.60
2015,07,18,16,04,29.60
2015,07,18,16,05,29.60
2015,07,18,16,06,29.50
2015,07,18,16,07,29.50
2015,07,18,16,08,29.40
2015,07,18,16,09,29.30
2015,07,18,16,10,29.30
2015,07,18,16,11,29.20
2015,07,18,16,12,29.10
2015,07,18,16,13,29.00
2015,07,18,16,14,28.90
2015,07,18,16,15,28.90
2015,07,18,16,16,28.90
2015,07,18,16,17,28.90
2015,07,18,16,18,28.90
2015,07,18,16,19,28.90
2015,07,18,16,20,28.90
2015,07,18,16,21,28.90
2015,07,18,16,22,28.90
2015,07,18,16,23,28.90
2015,07,18,16,24,28.90
2015,07,18,16,25,29.00
2015,07,18,16,26,29.00
2015,07,18,16,27,29.00
2015,07,18,16,28,28.90
2015,07,18,16,29,28.90
2015,07,18,16,30,28.90
2015,07,18,16,31,28.90
2015,07,18,16,32,29.00
2015,07,18,16,33,29.00
2015,07,18,16,34,29.10
2015,07,18,16,35,29.10
2015,07,18,16,36,29.00
2015,07,18,16,37,29.10
2015,07,18,16,38,29.10
2015,07,18,16,39,29.20
2015,07,18,16,40,29.20
2015,07,18,16,41,29.20
2015,07,18,16,42,29.30
2015,07,18,16,43,29.30
2015,07,18,16,44,29.30
2015,07,18,16,45,29.30
2015,07,18,16,46,29.30
2015,07,18,16,47,29.30
2015,07,18,16,48,29.30
2015,07,18,16,49,29.20
2015,07,18,16,50,29.20
2015,07,18,16,51,29.30
2015,07,18,16,52,29.30
2015,07,18,16,53,29.30
2015,07,18,16,54,29.30
2015,07,18,16,55,29.30
2015,07,18,16,56,29.40
2015,07,18,16,57,29.40
2015,07,18,16,58,29.40
2015,07,18,16,59,29.40
2015,07,18,17,00,29.50
2015,07,18,17,01,29.60
2015,07,18,17,02,29.70
2015,07,18,17,03,29.80
2015,07,18,17,04,29.80
2015,07,18,17,05,29.80
2015,07,18,17,06,29.80
2015,07,18,17,07,29.80
2015,07,18,17,08,29.80
2015,07,18,17,09,29.90
2015,07,18,17,10,29.90
2015,07,18,17,11,29.90
2015,07,18,17,12,29.90
2015,07,18,17,13,29.90
2015,07,18,17,14,29.90
2015,07,18,17,15,29.90
2015,07,18,17,16,29.90
2015,07,18,17,17,29.90
2015,07,18,17,18,29.90
2015,07,18,17,19,30.00